Temperature
15 16 16 15 15 13 13 14 14 15 16 17 18 18 19 18 17 15 13 12 10 7 5 3 2 1 1 1 1 0 -0 -1 -2 -2 -3 -4 -4 -5 -5 -6 -7 -8 -9 -9
14 15 15 14 14 14 13 13 14 15 15 17 18 19 18 17 16 15 14 12 10 8 6 4 3 2 1 1 1 1 -0 -1 -2 -2 -3 -4 -4 -5 -5 -6 -6 -7 -8 -9
12 15 13 12 13 13 13 13 13 13 14 16 17 16 17 17 16 15 14 13 11 9 7 5 4 3 2 2 1 1 -0 -1 -2 -2 -3 -4 -4 -4 -5 -5 -6 -7 -8 -9
11 14 12 15 16 16 14 14 13 13 14 14 16 17 17 17 16 16 15 14 12 11 8 6 4 3 2 2 1 1 -0 -1 -2 -2 -3 -3 -4 -4 -5 -5 -6 -7 -8 -9
11 10 12 15 16 14 14 13 14 14 14 15 16 14 16 18 17 17 15 14 13 11 9 6 4 3 2 2 1 1 -0 -1 -2 -2 -3 -3 -4 -4 -4 -5 -6 -7 -8 -9
9 9 10 15 14 14 14 12 15 14 13 15 14 11 14 18 17 16 15 13 12 11 9 6 5 4 3 2 1 1 0 -1 -2 -2 -3 -3 -3 -4 -4 -5 -5 -6 -7 -8
8 8 11 14 12 12 13 14 18 18 17 16 12 14 17 17 16 15 14 13 11 10 9 7 6 4 3 2 2 1 0 -1 -2 -2 -3 -3 -3 -4 -4 -5 -5 -6 -6 -7
8 8 10 12 11 12 14 17 18 19 19 18 18 18 17 16 16 15 14 12 11 9 8 7 6 4 3 3 2 1 -0 -1 -1 -2 -3 -3 -3 -4 -4 -5 -5 -5 -6 -7
11 12 15 14 14 16 16 16 17 17 17 17 16 17 17 16 16 15 14 12 10 9 7 6 5 5 4 3 2 1 -0 -1 -2 -2 -3 -3 -3 -4 -4 -4 -5 -5 -6 -7
12 12 14 15 15 16 17 17 17 17 17 16 16 17 17 16 16 15 14 12 10 8 7 6 5 5 4 3 2 1 0 -1 -2 -2 -3 -3 -3 -4 -4 -4 -5 -5 -6 -7
10 12 14 16 17 17 18 18 17 17 17 17 16 16 16 16 15 15 14 12 10 9 8 7 6 5 4 2 2 1 0 -1 -2 -2 -3 -3 -3 -4 -4 -4 -5 -5 -6 -7
12 14 13 15 17 17 17 17 17 16 16 16 15 15 15 15 14 14 13 12 10 9 8 6 5 5 4 3 2 1 0 -1 -1 -2 -2 -3 -3 -4 -4 -4 -5 -5 -6 -7
14 15 15 15 15 15 15 15 16 15 15 15 14 14 14 13 13 12 12 11 10 10 8 6 4 4 4 3 2 1 0 -0 -1 -2 -2 -3 -3 -4 -4 -4 -5 -5 -6 -7
14 14 14 14 15 15 15 15 14 14 14 13 13 13 12 12 12 11 11 11 10 8 7 5 4 4 4 3 2 1 0 -0 -1 -2 -2 -3 -3 -4 -4 -4 -5 -5 -6 -6
12 13 13 13 13 13 13 13 13 13 12 12 12 11 11 11 11 11 11 10 9 7 6 4 3 3 3 3 2 1 0 -0 -1 -2 -2 -3 -3 -4 -4 -4 -5 -5 -6 -6
11 12 12 12 12 12 12 11 11 11 11 10 10 10 10 10 10 10 10 9 8 8 7 5 4 3 3 3 2 1 0 -0 -1 -1 -2 -3 -3 -4 -4 -4 -5 -5 -6 -6
10 10 10 10 10 9 9 9 9 9 9 9 9 9 9 9 9 9 9 9 8 7 6 5 4 2 1 2 2 2 1 -0 -1 -2 -2 -2 -3 -3 -4 -4 -5 -5 -6 -6
9 8 8 8 8 8 8 8 7 7 7 7 7 7 8 8 8 8 8 7 6 6 5 4 2 1 0 1 2 2 1 -0 -1 -1 -2 -2 -3 -3 -4 -4 -5 -5 -6 -6
7 7 7 7 7 7 6 6 6 6 6 6 6 6 7 7 7 7 7 6 5 5 6 3 1 -0 -1 0 1 1 1 0 -1 -1 -2 -2 -3 -3 -4 -4 -5 -5 -6 -6
6 6 6 6 6 5 5 5 5 5 5 5 5 6 6 7 7 6 6 5 6 6 4 2 1 -1 -2 -1 -1 0 1 0 -1 -1 -2 -2 -3 -3 -4 -4 -5 -5 -6 -6
5 5 5 5 4 4 4 4 4 4 4 4 4 5 5 6 6 5 5 5 6 4 2 1 -0 -1 -2 -2 -3 -1 0 -0 -1 -1 -1 -2 -2 -3 -4 -4 -5 -5 -6 -6
4 4 4 3 3 3 3 3 3 3 3 3 4 4 4 5 5 5 5 5 4 2 1 -0 -1 -2 -3 -4 -4 -2 -1 -0 -0 -1 -1 -2 -2 -3 -3 -4 -4 -5 -6 -6
3 3 3 2 2 2 2 2 2 2 2 2 3 3 3 4 4 4 4 4 3 1 -0 -1 -2 -3 -5 -5 -5 -3 -1 -0 -0 -1 -1 -1 -2 -3 -3 -4 -4 -5 -5 -6
2 2 2 1 1 1 1 1 1 1 1 2 2 2 3 3 3 4 3 3 2 0 -1 -2 -3 -4 -6 -6 -6 -4 -2 -1 -0 -0 -1 -1 -2 -3 -3 -4 -4 -5 -5 -6
1 1 1 0 0 -0 0 0 0 1 1 1 2 2 2 2 2 3 2 2 1 -1 -2 -4 -5 -5 -6 -7 -7 -5 -3 -1 0 -0 -0 -1 -2 -2 -3 -4 -4 -5 -5 -6
0 -0 -0 -0 -0 -0 -0 -0 -0 0 0 1 1 1 1 2 2 2 2 1 0 -2 -3 -4 -5 -6 -7 -7 -7 -6 -3 -1 -0 -0 -0 -1 -2 -2 -3 -3 -4 -5 -5 -6
-0 -1 -1 -1 -0 -0 -1 -1 -1 -0 -0 0 0 1 1 1 1 1 1 0 -1 -2 -4 -5 -6 -6 -7 -7 -7 -6 -4 -2 -1 -0 -0 -1 -2 -2 -3 -3 -4 -4 -5 -6
Wind_Speed
11 10 7 9 11 12 14 13 11 12 15 17 10 7 6 3 6 8 9 11 13 14 13 13 13 12 11 10 10 9 8 7 7 5 4 5 7 8 8 8 10 8 9 9
7 10 9 10 14 15 18 17 20 19 21 19 11 9 7 6 6 9 11 13 14 14 15 15 15 13 12 11 10 9 8 7 6 5 5 6 7 8 9 9 9 9 9 9
6 2 3 10 15 18 11 13 12 19 17 10 8 8 8 8 9 11 12 12 14 17 16 15 15 14 13 11 9 9 9 8 7 6 6 7 8 8 9 9 9 9 9 9
5 4 11 11 4 8 13 16 15 15 14 10 9 6 6 8 11 12 11 11 14 15 15 13 13 13 12 11 11 10 9 8 8 7 7 7 7 9 9 9 9 8 9 10
4 5 10 12 9 6 9 10 13 19 20 16 9 7 9 12 13 13 11 10 12 13 13 13 14 14 13 12 11 11 10 9 9 8 7 7 8 9 9 8 8 8 8 9
5 6 9 10 2 3 2 9 12 13 15 13 4 3 8 5 6 9 8 8 10 12 13 14 15 15 15 14 13 13 12 10 9 8 8 8 9 9 7 7 8 8 8 8
9 10 11 10 6 7 5 9 5 10 12 10 10 11 8 6 6 8 8 9 10 12 14 15 16 17 16 15 16 13 11 10 9 8 8 8 8 7 7 7 7 7 8 8
8 9 13 8 10 11 12 5 5 7 9 10 11 12 10 9 9 9 9 10 11 12 13 13 16 18 17 17 14 12 11 10 9 8 7 7 7 7 7 6 6 6 6 8
14 14 7 11 12 9 5 6 7 7 8 8 10 12 12 11 11 11 12 11 12 12 12 13 17 18 19 16 14 13 12 10 8 8 7 7 7 7 5 4 4 5 5 7
8 11 10 9 10 12 13 15 15 13 12 11 13 14 14 13 11 11 12 13 13 13 15 17 18 18 16 14 15 15 13 11 9 8 7 6 6 5 4 4 4 4 5 6
9 8 9 12 13 16 17 16 16 15 15 15 15 16 15 14 12 11 12 12 13 16 19 19 18 18 15 16 17 15 13 11 10 8 7 6 5 5 5 5 5 4 4 4
15 10 9 11 9 10 12 15 16 15 16 13 13 16 15 14 12 10 12 12 15 18 19 18 18 18 17 17 18 17 14 12 9 8 7 6 5 4 7 7 8 8 8 7
21 17 16 18 17 14 14 16 16 16 16 16 13 12 14 13 11 10 11 14 19 20 19 17 18 19 19 18 19 18 15 13 10 9 8 7 5 5 4 4 5 6 7 7
17 16 18 18 18 17 16 16 16 16 14 13 13 12 12 13 11 11 13 16 16 16 17 17 19 21 20 19 19 18 15 16 13 10 9 7 6 5 4 3 3 3 4 5
18 17 19 18 17 16 14 13 14 16 14 13 12 12 12 13 14 14 13 12 12 15 17 18 20 21 20 20 21 19 16 12 11 10 9 8 7 6 5 4 4 3 2 2
14 13 14 15 16 15 13 12 13 14 13 12 12 12 12 13 14 13 11 11 14 19 20 20 21 20 20 22 21 17 15 20 16 11 10 8 7 6 5 5 4 3 2 1
13 12 11 11 11 11 11 10 11 12 12 13 14 13 13 12 11 12 12 13 16 17 18 20 19 17 21 22 21 16 14 16 21 13 10 10 8 7 6 5 4 3 3 2
5 6 7 8 9 10 11 11 11 12 12 13 14 13 12 12 13 15 13 11 11 14 16 16 15 17 21 21 19 15 15 14 13 12 10 10 9 8 7 6 5 5 3 2
9 10 10 10 10 9 10 10 11 12 13 13 13 14 14 13 13 13 10 9 12 17 14 15 24 22 21 25 23 14 16 16 14 12 10 13 11 8 8 7 6 5 4 3
8 9 9 10 10 10 11 11 11 12 12 12 13 14 15 14 13 12 10 12 14 11 10 16 20 19 21 24 26 15 17 17 16 14 12 11 10 10 9 8 7 6 5 4
9 10 11 11 12 12 12 12 12 13 13 13 13 14 15 16 13 11 10 13 11 10 11 21 18 16 19 22 27 16 17 17 16 15 14 12 11 11 10 9 8 7 6 5
9 11 12 13 15 15 13 12 13 15 15 14 14 13 14 15 13 11 12 12 9 12 12 13 14 21 25 27 19 17 18 18 16 14 13 13 12 11 11 10 9 7 6 5
11 12 14 15 16 17 16 14 15 15 15 15 14 14 14 13 10 11 13 7 6 13 12 11 18 29 33 24 18 18 19 19 17 16 14 13 13 12 11 11 9 8 7 6
13 14 14 15 15 16 18 17 15 13 14 14 13 13 12 11 11 9 10 10 11 14 11 15 26 31 33 19 17 18 18 18 17 15 14 13 12 11 11 11 10 9 8 8
13 14 14 15 15 15 16 15 14 14 14 13 13 12 10 9 10 10 8 8 12 13 9 16 26 30 24 15 17 17 17 17 16 16 15 14 13 12 12 11 11 10 9 8
14 15 15 15 15 15 14 13 13 12 11 12 12 9 8 7 8 9 8 8 10 13 9 9 14 21 17 16 16 17 16 17 18 16 15 14 14 13 12 12 12 10 9 8
14 13 13 13 12 11 11 12 13 13 11 12 13 11 9 7 7 8 9 8 7 8 7 8 11 13 14 15 15 15 14 14 15 15 15 14 13 13 13 14 12 10 10 9
Wind_Direction
269 281 246 237 237 208 214 223 230 245 249 257 249 259 277 240 185 184 181 186 189 190 187 184 184 185 184 181 176 177 183 202 221 240 274 288 287 285 284 283 289 284 287 291
272 255 247 258 248 232 227 234 244 259 269 268 276 276 268 251 219 213 210 201 197 193 190 189 187 185 182 179 174 171 184 200 210 228 252 265 273 277 280 282 283 284 284 288
262 212 341 266 238 223 218 216 212 237 248 273 265 249 245 249 240 231 223 207 198 198 197 192 187 182 181 177 167 171 185 196 205 220 245 260 274 281 283 286 285 284 283 284
266 275 249 244 249 220 220 237 223 239 260 274 273 297 282 257 246 244 229 209 199 195 193 184 176 174 171 168 169 176 186 197 204 214 237 255 267 274 278 279 279 281 283 285
231 249 269 277 252 206 215 263 230 233 251 260 271 321 286 254 231 229 224 205 194 187 181 175 173 170 168 171 173 180 192 199 201 207 228 247 259 266 271 277 284 285 285 288
204 222 248 256 179 93 129 276 248 211 231 246 173 273 269 242 206 214 207 185 175 169 169 174 173 168 172 179 182 192 196 196 195 201 217 237 252 262 272 283 286 291 296 300
219 229 254 261 145 123 188 251 230 193 213 212 194 222 237 201 207 207 200 183 169 169 178 180 171 171 181 185 194 193 184 186 191 200 217 236 251 265 278 284 292 303 310 309
195 214 248 213 153 190 222 277 257 227 219 217 226 247 250 229 221 208 201 188 177 180 183 176 173 178 186 194 190 175 175 181 190 203 221 237 246 261 269 285 301 310 313 310
201 219 246 177 204 230 278 280 270 266 262 248 252 260 262 252 233 216 205 197 188 185 184 182 182 185 192 190 173 170 173 182 192 204 216 225 236 252 266 282 289 299 311 316
242 248 258 243 241 256 260 259 262 260 260 256 255 261 265 262 246 224 209 200 192 188 193 194 191 192 193 178 170 171 178 184 192 201 211 221 231 234 239 254 277 294 307 314
259 267 283 267 246 248 256 260 262 261 255 250 252 260 260 262 252 231 214 200 194 200 203 200 192 193 188 176 171 175 180 185 191 196 199 215 229 228 233 222 232 260 261 282
257 251 249 262 256 253 257 264 265 266 270 262 246 255 261 260 252 231 214 201 202 207 208 201 192 192 188 179 175 176 183 187 190 191 196 203 216 248 270 255 257 270 278 291
263 270 266 270 272 269 266 271 274 274 274 278 270 256 258 261 254 233 215 206 209 211 209 200 193 193 189 181 178 180 184 184 186 189 191 194 198 209 244 282 282 279 273 290
273 278 277 275 274 273 270 271 277 280 282 280 279 273 262 260 256 238 227 218 213 208 207 202 197 196 189 182 181 183 182 185 184 185 186 187 190 195 205 222 262 286 294 302
266 266 270 277 278 280 281 285 289 290 292 290 283 274 267 262 257 249 237 218 205 205 207 205 203 198 186 183 184 183 182 184 183 179 182 183 182 185 198 213 225 249 274 312
278 281 283 284 286 292 298 299 296 297 300 299 295 285 273 264 259 255 238 208 202 211 209 207 207 195 183 183 184 184 186 186 180 179 181 181 181 185 195 202 210 231 254 239
278 284 289 299 308 316 321 320 314 311 313 309 302 296 289 277 268 260 246 223 216 217 210 208 204 187 182 184 184 183 181 185 183 182 183 182 183 186 189 189 194 211 228 232
354 352 350 343 338 334 331 326 319 314 307 300 299 298 292 280 269 264 255 234 222 224 219 207 191 183 183 184 185 180 177 179 181 181 181 182 183 183 184 185 189 202 220 240
14 3 352 345 336 325 317 311 307 303 300 300 301 298 290 281 272 269 260 233 224 231 223 199 195 188 185 186 184 180 175 176 178 179 179 186 187 184 184 183 187 193 196 199
351 342 333 325 320 314 309 306 304 302 300 303 303 301 297 290 281 272 256 241 237 233 200 192 196 192 186 186 184 181 177 176 177 178 179 182 183 183 185 186 184 185 187 190
324 321 319 317 312 307 303 302 303 301 299 297 294 291 290 289 284 271 260 262 252 216 196 198 196 192 187 187 186 183 179 177 177 177 178 181 183 184 185 185 184 184 184 182
309 311 311 308 304 301 298 295 293 293 292 289 286 286 288 289 286 273 256 255 257 210 199 200 195 191 188 187 187 184 180 177 176 175 177 180 181 183 184 183 182 182 177 173
304 303 301 299 296 294 292 288 286 286 284 282 282 283 283 283 280 276 279 260 233 220 208 202 197 193 190 188 187 185 181 177 176 176 177 180 181 181 181 180 179 175 170 172
300 297 293 290 289 290 290 288 281 278 277 278 275 270 271 279 282 267 259 264 242 231 216 206 201 196 192 189 187 186 182 179 176 174 174 176 177 177 177 176 174 171 171 170
292 291 290 290 290 289 286 285 284 281 280 281 277 270 259 252 260 274 274 260 249 241 223 211 204 198 193 189 187 186 182 179 175 171 172 174 176 177 176 174 173 171 172 172
288 288 287 282 282 284 286 286 285 282 281 282 283 278 269 258 256 265 268 258 243 241 224 202 199 200 193 188 187 184 181 179 175 172 172 173 174 174 174 174 169 171 171 171
284 284 286 287 284 278 279 280 282 282 279 278 283 283 275 266 262 261 261 258 246 238 218 197 193 193 188 185 183 182 181 178 173 170 171 171 173 175 175 171 171 169 167 167
Height
1541 1537 1537 1538 1536 1539 1540 1534 1531 1516 1507 1493 1490 1490 1490 1490 1490 1490 1489 1488 1487 1487 1487 1488 1489 1492 1494 1496 1498 1499 1499 1499 1499 1498 1496 1494 1491 1488 1484 1480 1476 1472 1468 1463
1541 1534 1532 1534 1529 1528 1528 1524 1517 1510 1500 1483 1486 1486 1485 1485 1485 1485 1483 1482 1481 1480 1480 1480 1482 1484 1487 1490 1491 1493 1494 1494 1494 1493 1491 1489 1487 1484 1480 1476 1472 1468 1464 1460
1546 1531 1534 1534 1516 1514 1513 1505 1506 1506 1491 1482 1483 1481 1481 1481 1480 1479 1477 1476 1474 1473 1472 1473 1475 1477 1480 1483 1485 1487 1488 1489 1489 1488 1487 1485 1482 1479 1476 1472 1468 1464 1460 1456
1543 1535 1542 1509 1496 1495 1498 1493 1492 1488 1482 1480 1479 1479 1478 1476 1474 1472 1471 1469 1467 1466 1465 1467 1469 1471 1475 1477 1479 1481 1482 1483 1483 1483 1482 1480 1478 1475 1472 1468 1464 1460 1456 1452
1542 1543 1526 1504 1492 1492 1493 1490 1480 1480 1477 1475 1476 1476 1472 1470 1468 1466 1465 1463 1461 1460 1459 1460 1462 1464 1468 1470 1472 1474 1476 1477 1478 1478 1477 1476 1474 1471 1468 1464 1461 1457 1453 1449
1541 1543 1531 1500 1490 1488 1492 1492 1470 1470 1471 1470 1473 1478 1469 1464 1462 1460 1458 1456 1454 1453 1452 1453 1454 1457 1460 1462 1465 1467 1469 1471 1472 1472 1472 1471 1469 1467 1464 1461 1458 1454 1450 1446
1538 1534 1513 1488 1488 1490 1498 1484 1465 1463 1464 1465 1466 1465 1460 1458 1456 1454 1452 1450 1447 1446 1445 1445 1447 1450 1452 1455 1457 1461 1464 1465 1466 1467 1467 1466 1465 1463 1461 1458 1454 1451 1447 1442
1526 1527 1510 1479 1484 1484 1474 1465 1463 1461 1460 1460 1459 1457 1455 1453 1450 1447 1445 1442 1440 1438 1437 1438 1440 1442 1444 1447 1451 1455 1457 1459 1460 1461 1461 1461 1461 1459 1457 1454 1451 1448 1443 1439
1497 1488 1474 1471 1469 1465 1465 1462 1459 1458 1457 1456 1454 1451 1449 1447 1443 1440 1437 1435 1433 1431 1431 1431 1431 1433 1436 1439 1444 1446 1449 1452 1454 1455 1456 1456 1456 1455 1453 1451 1448 1444 1440 1436
1480 1471 1469 1467 1465 1463 1462 1458 1455 1453 1451 1450 1447 1444 1442 1439 1436 1433 1430 1427 1425 1423 1422 1421 1422 1425 1429 1433 1436 1439 1442 1445 1447 1449 1450 1451 1451 1450 1449 1447 1445 1442 1438 1433
1474 1466 1465 1460 1458 1456 1454 1451 1448 1445 1444 1443 1440 1437 1435 1432 1428 1426 1423 1420 1417 1414 1412 1412 1414 1417 1421 1424 1428 1431 1434 1438 1440 1442 1444 1445 1446 1446 1445 1444 1442 1439 1435 1431
1463 1460 1460 1452 1451 1452 1449 1445 1442 1440 1436 1434 1434 1430 1427 1423 1420 1417 1414 1411 1408 1405 1403 1403 1405 1408 1412 1415 1419 1422 1426 1429 1432 1435 1437 1439 1441 1441 1441 1440 1439 1436 1433 1430
1454 1454 1452 1446 1443 1443 1442 1438 1435 1433 1429 1425 1424 1422 1419 1414 1411 1408 1405 1401 1398 1396 1395 1395 1395 1398 1402 1406 1410 1414 1418 1421 1425 1428 1431 1433 1435 1436 1437 1437 1435 1433 1431 1428
1449 1447 1442 1438 1435 1433 1432 1430 1427 1423 1421 1419 1416 1413 1410 1405 1402 1399 1395 1392 1390 1387 1386 1386 1386 1387 1392 1397 1402 1406 1410 1414 1418 1421 1424 1426 1429 1430 1432 1432 1432 1430 1428 1426
1440 1438 1434 1429 1427 1424 1423 1421 1418 1414 1411 1409 1407 1403 1400 1395 1391 1388 1386 1383 1380 1377 1376 1376 1376 1377 1383 1388 1393 1398 1402 1406 1410 1414 1417 1420 1423 1425 1426 1427 1427 1427 1425 1423
1430 1428 1426 1422 1419 1417 1415 1414 1411 1407 1404 1401 1397 1394 1390 1386 1381 1378 1375 1372 1369 1366 1365 1365 1365 1367 1372 1378 1384 1389 1394 1399 1403 1407 1410 1413 1416 1419 1421 1422 1423 1423 1422 1421
1422 1420 1418 1416 1414 1412 1410 1408 1405 1401 1397 1393 1389 1385 1381 1376 1371 1367 1364 1361 1358 1356 1355 1354 1356 1360 1363 1368 1374 1380 1386 1391 1396 1400 1403 1407 1410 1413 1416 1418 1419 1419 1419 1418
1416 1416 1414 1412 1410 1407 1404 1402 1399 1395 1391 1386 1381 1377 1372 1367 1362 1358 1355 1352 1348 1345 1343 1343 1346 1350 1353 1358 1365 1371 1377 1383 1388 1392 1397 1401 1404 1408 1411 1413 1414 1415 1415 1415
1412 1411 1410 1408 1405 1403 1399 1396 1392 1389 1384 1379 1374 1369 1364 1359 1355 1350 1346 1342 1339 1334 1333 1335 1337 1339 1341 1347 1356 1362 1368 1374 1380 1386 1391 1395 1399 1402 1405 1408 1410 1411 1412 1412
1409 1408 1406 1403 1401 1398 1394 1390 1385 1381 1376 1372 1366 1360 1355 1351 1347 1341 1336 1332 1328 1325 1325 1326 1328 1328 1332 1337 1345 1352 1359 1366 1372 1378 1384 1388 1392 1396 1400 1403 1405 1407 1408 1408
1406 1404 1401 1397 1394 1391 1387 1382 1377 1372 1367 1363 1358 1352 1347 1342 1338 1333 1327 1321 1318 1317 1315 1315 1316 1318 1322 1328 1336 1342 1349 1357 1364 1370 1376 1381 1386 1390 1394 1397 1400 1402 1404 1405
1401 1398 1395 1391 1386 1381 1377 1373 1368 1362 1357 1353 1349 1344 1339 1333 1328 1323 1318 1314 1310 1308 1306 1306 1306 1309 1313 1319 1326 1332 1339 1347 1355 1362 1369 1375 1380 1384 1388 1392 1395 1398 1400 1401
1395 1392 1387 1383 1377 1371 1366 1362 1357 1353 1347 1343 1339 1335 1330 1325 1320 1315 1309 1305 1302 1299 1297 1297 1298 1301 1305 1310 1316 1323 1330 1338 1346 1354 1361 1368 1373 1378 1382 1387 1390 1393 1395 1397
1387 1382 1378 1373 1367 1361 1354 1349 1346 1342 1338 1333 1329 1326 1321 1316 1310 1307 1302 1297 1294 1291 1289 1289 1291 1294 1299 1302 1307 1314 1321 1329 1337 1346 1354 1361 1367 1372 1377 1381 1385 1388 1391 1393
1377 1373 1367 1362 1356 1350 1345 1339 1335 1331 1327 1323 1319 1316 1312 1308 1303 1298 1294 1290 1286 1283 1282 1282 1284 1288 1292 1295 1300 1306 1313 1321 1330 1338 1346 1354 1360 1365 1370 1375 1379 1383 1386 1388
1367 1362 1357 1352 1347 1342 1336 1331 1326 1321 1318 1313 1309 1306 1303 1299 1295 1290 1286 1282 1278 1276 1275 1275 1278 1282 1285 1289 1294 1300 1307 1316 1324 1332 1340 1347 1354 1359 1364 1369 1374 1378 1381 1384
1356 1351 1346 1341 1336 1332 1328 1324 1319 1314 1310 1306 1301 1297 1294 1290 1286 1282 1278 1274 1270 1269 1268 1269 1272 1275 1280 1284 1290 1295 1302 1310 1318 1326 1334 1341 1348 1353 1359 1364 1368 1373 1376 1379